Weather reports worldwide

Advertisment
Norderney, Germany (10113): temperature & dewpoint: 08.10.2019 14:00:00 - 14.10.2019 14:00:00 (CEST)Norderney, Germany (10113): temperature 5cm & temperature -5cm: 08.10.2019 14:00:00 - 14.10.2019 14:00:00 (CEST)Norderney, Germany (10113): temperature -20cm & temperature -100cm: 08.10.2019 14:00:00 - 14.10.2019 14:00:00 (CEST)Norderney, Germany (10113): wind speed & gusts: 08.10.2019 14:00:00 - 14.10.2019 14:00:00 (CEST)Norderney, Germany (10113): wind direction: 08.10.2019 14:00:00 - 14.10.2019 14:00:00 (CEST)Norderney, Germany (10113): reduced air pressure: 08.10.2019 14:00:00 - 14.10.2019 14:00:00 (CEST)Norderney, Germany (10113): visibility: 08.10.2019 14:00:00 - 14.10.2019 14:00:00 (CEST)Norderney, Germany (10113): sunshine duration: 08.10.2019 14:00:00 - 14.10.2019 14:00:00 (CEST)Norderney, Germany (10113): precipitation: 08.10.2019 14:00:00 - 14.10.2019 14:00:00 (CEST)
Date & Time tt [°C] td [°C] tt 5cm [°C] tt -5cm [°C] tt -20cm [°C] tt -100cm [°C] ff [km/h] ff [kn] fx [km/h] fx [kn] dd ppp [hPa] vv [km] sd [min] rr [mm]
14.10.2019 14:00:00 14,2 10,7 14,5 14,7 13,2 13,7 - - - - - 1013,3 - 3 0,0
14.10.2019 13:00:00 13,5 10,3 14,0 14,2 12,9 13,7 - - - - - 1014,2 - 0 0,0
14.10.2019 12:00:00 13,5 11,0 14,6 14,0 12,7 13,7 - - - - - 1014,6 - 13 0,0
14.10.2019 11:00:00 13,1 11,0 13,9 13,2 12,5 13,7 12 6 21 11 SSW 1014,4 38 7 0,0
14.10.2019 10:00:00 12,9 10,9 13,0 12,1 12,5 13,7 12 6 22 12 SSW 1013,9 39 1 0,0
14.10.2019 09:00:00 12,6 10,7 12,0 11,7 12,5 13,7 14 8 31 17 SSW 1013,4 40 0 0,0
14.10.2019 08:00:00 12,5 10,7 11,9 11,7 12,6 13,7 18 10 29 16 SW 1012,5 35 0 0,0
14.10.2019 07:00:00 12,5 10,7 11,9 11,7 12,7 13,6 18 10 31 17 SW 1011,9 34 0 0,0
14.10.2019 06:00:00 12,6 10,7 12,0 11,7 12,9 13,6 19 11 32 18 SW 1011,3 38 0 0,0
14.10.2019 05:00:00 13,0 10,8 12,0 11,8 13,1 13,6 19 10 42 23 SW 1010,7 29 0 0,0
14.10.2019 04:00:00 13,4 11,0 12,3 12,2 13,3 13,6 22 12 41 22 SW 1010,1 28 0 0,0
14.10.2019 03:00:00 13,9 11,1 12,7 12,4 13,5 13,6 25 14 42 23 SW 1009,4 31 0 0,0
14.10.2019 02:00:00 14,2 11,5 13,0 12,9 13,7 13,6 27 15 48 26 SW 1008,4 27 0 0,0
14.10.2019 01:00:00 14,6 12,4 13,6 13,3 13,8 13,6 29 15 46 25 SW 1007,3 30 0 0,0
14.10.2019 00:00:00 14,8 12,8 13,8 13,7 14,0 13,6 27 15 47 26 SW 1006,6 28 0 0,0
13.10.2019 23:00:00 15,5 13,0 14,7 14,3 14,0 13,6 29 16 45 25 SW 1005,7 32 0 0,0
13.10.2019 22:00:00 16,8 14,0 15,8 14,8 14,0 13,6 32 17 50 27 SW 1004,5 33 0 0,0
13.10.2019 21:00:00 17,4 14,9 16,5 15,0 14,0 13,6 25 13 56 30 SW 1004,0 34 0 0,0
13.10.2019 20:00:00 18,8 15,2 17,6 15,3 13,9 13,6 32 17 53 29 SSW 1003,1 36 0 0,0
13.10.2019 19:00:00 18,5 15,4 17,1 15,4 13,7 13,6 31 17 46 25 S 1002,4 42 0 0,0
13.10.2019 18:00:00 18,4 16,4 17,5 15,5 13,5 13,6 24 13 36 20 S 1003,0 34 0 0,0
13.10.2019 17:00:00 18,0 16,5 17,4 15,3 13,2 13,6 19 11 30 16 S 1003,2 28 0 0,0
13.10.2019 16:00:00 17,2 16,0 16,8 14,8 12,9 13,6 19 10 32 17 S 1004,3 22 0 0,0
13.10.2019 15:00:00 16,0 15,4 15,6 14,1 12,7 13,6 18 10 25 13 SSE 1005,1 11 0 0,3
13.10.2019 14:00:00 15,4 14,7 15,0 13,8 12,4 13,6 15 8 24 13 SSE 1005,8 6 0 0,0
13.10.2019 13:00:00 14,5 13,7 14,3 13,4 12,2 13,6 14 8 20 11 SSE 1007,1 9 0 0,0
13.10.2019 12:00:00 13,0 12,6 13,2 12,8 12,0 13,6 11 6 21 11 SE 1007,6 6 0 0,0
13.10.2019 11:00:00 11,9 11,9 12,1 12,0 11,9 13,6 11 6 21 12 SE 1007,9 3,0 0 0,0
13.10.2019 10:00:00 11,2 11,1 11,3 11,5 11,8 13,6 13 7 22 12 ESE 1008,1 1,7 0 0,0
13.10.2019 09:00:00 11,0 10,7 10,9 11,3 11,8 13,6 14 8 22 12 ESE 1008,3 12 0 0,0
13.10.2019 08:00:00 10,9 10,7 10,6 11,2 11,9 13,6 10 6 18 10 ESE 1008,5 7 0 0,1
13.10.2019 07:00:00 10,8 10,4 10,5 11,2 11,9 13,6 10 5 21 11 SE 1008,9 35 0 0,0
13.10.2019 06:00:00 10,7 10,2 10,4 11,3 12,0 13,6 10 5 20 11 SE 1009,4 32 0 0,0
13.10.2019 05:00:00 10,9 10,5 10,6 11,3 12,1 13,6 10 6 16 8 SSE 1009,8 17 0 0,1
13.10.2019 04:00:00 11,1 10,8 10,8 11,4 12,1 13,6 10 5 21 11 S 1009,8 14 0 0,3
13.10.2019 03:00:00 11,2 10,5 10,7 11,4 12,2 13,6 11 6 20 11 S 1010,1 32 0 0,1
13.10.2019 02:00:00 11,3 10,7 10,8 11,5 12,3 13,6 11 6 26 14 S 1010,4 30 0 0,2
13.10.2019 01:00:00 11,6 10,8 11,0 11,6 12,4 13,6 17 9 24 13 S 1010,5 26 0 0,2
13.10.2019 00:00:00 11,7 10,9 11,1 11,7 12,4 13,6 13 7 26 14 SSW 1010,6 13 0 0,4
12.10.2019 23:00:00 12,0 11,2 11,3 11,8 12,5 13,6 13 7 24 13 SSW 1010,5 16 0 0,3
12.10.2019 22:00:00 11,9 10,4 11,0 11,9 12,6 13,6 14 8 24 13 SSW 1009,8 35 0 0,1
12.10.2019 21:00:00 12,1 11,2 11,5 12,1 12,7 13,6 17 9 28 15 SSW 1009,6 22 0 0,4
12.10.2019 20:00:00 12,1 10,7 11,3 12,3 12,8 13,6 17 9 29 15 SW 1009,6 19 0 0,4
12.10.2019 19:00:00 12,7 11,4 11,8 12,6 12,9 13,6 16 9 28 15 SSW 1009,4 27 0 0,6
12.10.2019 18:00:00 12,8 11,0 11,9 13,0 12,9 13,6 21 11 32 18 SW 1009,0 16 0 0,2
12.10.2019 17:00:00 13,2 11,7 12,7 13,3 12,9 13,6 19 11 33 18 SW 1009,0 26 0 0,1
12.10.2019 16:00:00 13,1 11,7 12,8 13,3 12,8 13,6 20 11 36 20 SW 1008,7 28 0 0,1
12.10.2019 15:00:00 13,1 11,2 13,0 13,2 12,7 13,6 25 13 40 21 SW 1008,5 40 0 0,0
12.10.2019 14:00:00 12,9 10,8 13,0 13,1 12,6 13,6 26 14 39 21 SW 1008,0 47 0 0,0
12.10.2019 13:00:00 12,7 10,0 12,8 12,9 12,5 13,6 25 14 37 20 SW 1007,7 53 0 0,0
12.10.2019 12:00:00 12,4 9,5 12,2 12,6 12,4 13,6 23 13 37 20 SW 1007,1 75 0 0,0
12.10.2019 11:00:00 11,9 9,7 11,4 12,3 12,3 13,6 19 11 34 19 SSW 1006,7 60 0 0,0
12.10.2019 10:00:00 11,7 10,2 11,1 11,9 12,4 13,6 19 11 34 18 SW 1006,0 34 0 0,0
12.10.2019 09:00:00 11,5 10,0 10,8 11,7 12,5 13,5 22 12 37 20 SW 1005,5 28 0 0,1
12.10.2019 08:00:00 11,7 10,5 10,9 11,8 12,6 13,5 22 12 36 19 SW 1005,1 26 0 0,0
12.10.2019 07:00:00 11,6 10,4 10,9 12,0 12,7 13,5 21 11 38 20 SW 1004,5 27 0 0,1
12.10.2019 06:00:00 12,2 10,8 11,4 12,2 12,8 13,5 20 11 35 19 SW 1004,4 25 0 0,5
12.10.2019 05:00:00 12,9 9,5 11,2 12,5 12,9 13,5 21 11 37 20 WSW 1004,2 30 0 0,2
12.10.2019 04:00:00 12,8 11,1 12,0 12,8 12,9 13,5 22 12 38 20 WSW 1004,2 12 0 1,0
12.10.2019 03:00:00 13,6 12,5 12,8 12,9 13,0 13,5 20 11 37 20 SW 1003,9 30 0 0,0
12.10.2019 02:00:00 13,6 11,9 12,7 13,1 13,0 13,5 23 12 45 25 WSW 1003,1 27 0 0,7
12.10.2019 01:00:00 14,2 13,4 13,6 13,3 12,9 13,5 29 16 57 31 WSW 1002,7 14 0 1,8
12.10.2019 00:00:00 14,5 13,4 13,7 13,3 12,9 13,5 39 21 63 34 SW 1002,2 16 0 0,2
11.10.2019 23:00:00 14,2 13,3 13,6 13,2 12,9 13,5 35 19 60 32 SW 1002,1 7 0 0,1
11.10.2019 22:00:00 14,2 12,8 13,4 13,1 12,9 13,5 34 18 55 30 SW 1002,2 26 0 0,2
11.10.2019 21:00:00 13,8 12,9 13,2 13,1 12,9 13,5 32 18 59 32 SSW 1002,4 7 0 0,0
11.10.2019 20:00:00 13,6 12,9 13,1 13,1 12,9 13,5 30 16 58 31 SSW 1002,8 8 0 0,0
11.10.2019 19:00:00 14,0 12,6 13,7 13,2 12,9 13,5 34 18 55 30 SSW 1003,2 35 0 0,0
11.10.2019 18:00:00 14,0 12,6 13,8 13,3 12,8 13,5 35 19 61 33 SSW 1003,5 33 0 0,0
11.10.2019 17:00:00 14,3 12,5 13,8 13,5 12,8 13,5 40 21 63 34 SSW 1003,6 25 0 0,0
11.10.2019 16:00:00 14,5 12,4 14,0 13,5 12,7 13,5 33 18 61 33 SSW 1004,1 37 0 0,0
11.10.2019 15:00:00 14,3 12,5 13,6 13,6 12,6 13,5 33 18 58 31 SSW 1004,7 31 0 0,0
11.10.2019 14:00:00 13,9 12,4 13,4 13,3 12,5 13,5 30 16 48 26 SSW 1005,0 28 0 1,0
11.10.2019 13:00:00 13,4 12,7 13,1 13,4 12,3 13,5 28 15 50 27 SSW 1005,9 9 0 0,4
11.10.2019 12:00:00 13,5 12,4 13,2 13,3 12,1 13,5 22 12 46 25 SSW 1006,2 18 0 0,0
11.10.2019 11:00:00 13,4 12,4 13,1 12,8 11,9 13,5 25 14 48 26 SSW 1006,4 15 0 0,8
11.10.2019 10:00:00 13,6 12,3 13,1 12,4 11,8 13,5 29 15 47 25 SSW 1006,4 20 0 0,0
11.10.2019 09:00:00 13,7 12,4 13,2 12,1 11,7 13,5 28 15 48 26 SSW 1006,0 24 0 0,0
11.10.2019 08:00:00 13,7 12,2 12,9 11,8 11,6 13,5 31 17 57 31 SSW 1005,9 25 0 0,0
11.10.2019 07:00:00 13,1 11,7 12,2 11,6 11,6 13,5 31 17 56 30 SW 1006,1 26 0 0,1
11.10.2019 06:00:00 12,5 11,4 11,9 11,5 11,5 13,5 35 19 55 30 SSW 1005,7 23 0 1,2
11.10.2019 05:00:00 13,0 11,1 11,8 11,4 11,5 13,5 36 19 61 33 SSW 1006,1 6 0 0,5
11.10.2019 04:00:00 13,1 10,6 12,8 11,3 11,5 13,5 27 15 53 29 SSW 1006,9 30 0 0,0
11.10.2019 03:00:00 13,2 10,5 12,7 11,2 11,4 13,5 31 17 52 28 SSW 1007,7 26 0 0,0
11.10.2019 02:00:00 13,0 10,7 12,4 11,1 11,4 13,5 28 15 53 28 SSW 1007,9 24 0 0,0
11.10.2019 01:00:00 12,7 10,4 12,3 10,9 11,4 13,5 28 15 45 25 SSW 1008,6 26 0 0,0
11.10.2019 00:00:00 12,1 9,9 11,7 10,8 11,5 13,5 21 11 42 23 SSW 1009,0 27 0 0,0
10.10.2019 23:00:00 12,0 9,6 11,6 10,8 11,6 13,6 21 12 40 22 SSW 1009,3 30 0 0,0
10.10.2019 22:00:00 12,5 9,1 11,8 10,8 11,7 13,6 26 14 44 24 SSW 1009,6 34 0 0,0
10.10.2019 21:00:00 12,3 9,1 11,1 10,9 11,9 13,6 19 10 46 25 SW 1010,0 29 0 0,0
10.10.2019 20:00:00 12,2 9,1 11,0 11,0 12,1 13,6 22 12 41 22 SW 1009,8 27 0 0,0
10.10.2019 19:00:00 12,5 9,2 11,3 11,7 12,2 13,6 24 13 50 27 SW 1009,3 24 0 0,0
10.10.2019 18:00:00 13,1 9,0 12,4 12,5 12,2 13,6 29 16 53 29 WSW 1008,9 25 33 0,0
10.10.2019 17:00:00 13,3 8,6 13,2 12,9 12,1 13,6 30 16 51 27 WSW 1008,6 28 32 0,0
10.10.2019 16:00:00 13,5 9,2 13,5 13,3 11,8 13,6 29 16 54 29 WSW 1008,2 20 39 0,1
10.10.2019 15:00:00 13,5 8,6 13,6 13,2 11,6 13,6 29 16 53 29 WSW 1007,7 32 38 0,0
10.10.2019 14:00:00 11,6 9,3 10,7 12,4 11,3 13,6 27 14 50 27 WSW 1007,6 15 18 0,4
10.10.2019 13:00:00 11,9 9,6 11,8 11,7 11,1 13,6 25 14 50 27 SW 1006,9 27 7 3,1
10.10.2019 12:00:00 12,0 9,9 11,4 12,5 10,8 13,6 29 16 49 26 SW 1006,4 24 41 0,2
10.10.2019 11:00:00 11,6 9,7 11,9 11,3 10,5 13,6 28 15 44 24 SW 1005,8 28 36 0,3
10.10.2019 10:00:00 11,3 9,5 11,6 10,1 10,3 13,6 29 15 45 24 SW 1005,3 19 29 0,3
10.10.2019 09:00:00 10,7 9,4 9,9 9,5 10,3 13,6 26 14 42 23 SW 1004,6 22 0 1,5
10.10.2019 08:00:00 10,5 9,1 9,5 9,1 10,4 13,6 25 14 44 24 SW 1004,1 20 0 0,1
10.10.2019 07:00:00 10,1 8,6 8,8 8,9 10,5 13,6 21 11 45 25 SSW 1003,5 33 0 0,0
10.10.2019 06:00:00 10,3 8,2 9,1 9,1 10,6 13,6 26 14 45 25 SW 1003,0 38 0 0,2
10.10.2019 05:00:00 10,0 7,9 8,9 9,3 10,7 13,6 28 15 45 24 SW 1002,8 44 0 0,5
10.10.2019 04:00:00 10,0 8,0 9,1 9,1 10,8 13,6 29 16 47 25 SW 1002,6 18 0 0,1
10.10.2019 03:00:00 10,2 7,9 9,2 9,4 10,9 13,6 28 15 46 25 SW 1002,3 60 0 0,0
10.10.2019 02:00:00 10,5 8,0 9,7 9,4 11,1 13,6 31 17 48 26 SW 1002,1 52 0 0,0
10.10.2019 01:00:00 10,6 8,1 9,5 9,7 11,3 13,6 28 15 41 22 SW 1001,8 57 0 0,0
10.10.2019 00:00:00 10,6 7,9 9,7 10,2 11,4 13,6 23 12 49 26 SW 1001,8 55 0 0,0
09.10.2019 23:00:00 11,0 8,7 10,4 10,3 11,5 13,6 30 16 45 25 SW 1002,1 46 0 0,0
09.10.2019 22:00:00 10,9 9,2 10,4 10,3 11,7 13,6 23 13 47 25 SW 1001,6 32 0 0,0
09.10.2019 21:00:00 11,1 8,9 10,1 10,4 11,9 13,6 26 14 42 23 SW 1001,8 47 0 0,0
09.10.2019 20:00:00 11,1 8,6 10,1 10,9 12,1 13,6 24 13 42 23 SW 1001,7 50 0 0,0
09.10.2019 19:00:00 11,3 8,1 10,5 11,5 12,3 13,6 26 14 42 23 SW 1001,6 55 11 0,0
09.10.2019 18:00:00 11,3 8,0 10,8 12,2 12,3 13,6 25 14 41 22 SW 1001,5 65 10 0,0
09.10.2019 17:00:00 11,7 8,4 12,6 12,8 12,3 13,6 24 13 44 24 SW 1001,9 75 26 0,0
09.10.2019 16:00:00 11,5 8,0 11,7 12,8 12,2 13,6 27 15 46 25 SW 1001,8 65 0 0,0
09.10.2019 15:00:00 12,1 8,7 12,3 13,0 12,0 13,6 20 11 43 23 SW 1001,9 49 0 0,0
09.10.2019 14:00:00 13,0 10,0 13,6 13,6 11,7 13,6 23 13 36 19 SSW 1002,0 34 20 0,0
09.10.2019 13:00:00 12,6 10,1 13,2 12,3 11,5 13,6 22 12 41 22 SSW 1002,5 24 0 0,0
09.10.2019 12:00:00 12,0 10,2 12,0 11,8 11,3 13,6 22 12 39 21 SSW 1002,7 27 0 0,0
09.10.2019 11:00:00 11,8 10,2 12,0 11,3 11,2 13,6 22 12 43 23 SSW 1002,9 25 11 0,0
09.10.2019 10:00:00 11,5 9,8 12,0 10,9 11,1 13,6 23 12 43 23 SSW 1002,8 24 59 0,0
09.10.2019 09:00:00 11,3 9,8 11,2 10,3 11,2 13,6 19 11 38 21 SSW 1002,9 24 21 0,0
09.10.2019 08:00:00 11,5 9,4 10,6 10,1 11,3 13,6 23 13 42 23 SSW 1002,9 28 0 0,0
09.10.2019 07:00:00 11,7 9,3 10,4 10,1 11,4 13,6 26 14 40 22 SW 1002,9 30 0 0,0
09.10.2019 06:00:00 11,8 9,5 10,3 10,3 11,5 13,6 27 14 43 23 SW 1002,7 27 0 0,0
09.10.2019 05:00:00 11,9 9,5 10,3 10,6 11,6 13,6 25 14 45 25 SW 1002,7 30 0 0,1
09.10.2019 04:00:00 12,0 9,9 10,8 10,8 11,7 13,6 28 15 44 24 SW 1002,2 26 0 0,0
09.10.2019 03:00:00 12,1 10,5 10,9 10,9 11,8 13,6 24 13 38 21 SW 1001,9 31 0 0,6
09.10.2019 02:00:00 12,0 10,7 11,1 11,2 11,9 13,6 28 15 46 25 SW 1002,0 10 0 0,3
09.10.2019 01:00:00 12,3 9,2 11,5 11,3 12,0 13,6 27 15 43 23 SW 1001,8 52 0 0,0
09.10.2019 00:00:00 12,6 10,4 11,8 11,4 12,1 13,6 24 13 50 27 SW 1001,5 29 0 0,1
08.10.2019 23:00:00 12,5 11,1 11,6 11,3 12,2 13,6 23 12 42 23 SSW 1001,3 16 0 0,1
08.10.2019 22:00:00 12,4 10,8 11,4 11,3 12,4 13,6 18 10 35 19 SSW 1001,6 21 0 0,0
08.10.2019 21:00:00 12,9 10,8 12,2 11,6 12,6 13,6 19 10 32 18 SSW 1001,9 24 0 0,0
08.10.2019 20:00:00 13,0 10,8 11,7 11,9 12,8 13,6 21 11 30 16 SW 1002,3 24 0 0,0
08.10.2019 19:00:00 13,2 10,8 12,0 12,6 13,0 13,6 21 11 34 18 SW 1002,3 23 30 0,0
08.10.2019 18:00:00 14,0 10,7 13,4 13,5 13,0 13,6 22 12 40 22 SW 1002,1 23 30 0,0
08.10.2019 17:00:00 13,9 11,2 13,6 14,0 12,9 13,6 23 12 39 21 WSW 1002,6 16 0 0,0
08.10.2019 16:00:00 14,3 11,5 14,8 14,4 12,8 13,6 25 13 42 23 WSW 1002,7 17 2 0,0
08.10.2019 15:00:00 14,3 11,3 14,3 14,4 12,6 13,6 26 14 42 23 WSW 1002,8 18 0 0,0
08.10.2019 14:00:00 14,8 11,8 14,9 14,6 12,2 13,6 20 11 34 18 WSW 1002,7 19 0 0,0

tt = temperature
td = dewpoint
tt 5cm = temperature 5cm
tt -5cm = temperature -5cm
tt -20cm = temperature -20cm
tt -100cm = temperature -100cm
ff = wind speed
fx = gusts
dd = wind direction
ppp = reduced air pressure
vv = visibility
sd = sunshine duration
rr = precipitation

Next stations